Гэтргян

Azerbaijan     40˚22′58″N   50˚19′01″E
temp.,
°C
wind,
m/s
gust,
m/s
humid.,
%
clouds,
%
prec.,
mm/h
press.,
hPa
HPBL,
m
3 december, thu
thu301:00+10˚nne679060 0.0 1028276
04:00+10˚ne798755 0.0 1028360
07:00+10˚ene678271 0.0 1029394
10:00+10˚ne557781 0.0 1030617
13:00+10˚ne557388 0.0 1029643
16:00+9˚ne557476 0.0 1029655
19:00+8˚ene557455 0.0 1030592
22:00+8˚ene567377 0.0 1030609
4 december, fri
fri401:00+9˚ene5670100 0.0 1030522
04:00+9˚ene5566100 0.0 1030467
07:00+9˚e566898 0.0 1030497
10:00+9˚e557099 0.1 1030530
13:00+9˚e5571100 0.0 1029566
16:00+9˚e5579100 0.2 1028591
19:00+10˚e6784100 0.1 1029386
22:00+10˚ese7978100 0.2 1028536
5 december, sat
sat501:00+9˚e787199 0.0 1028487
04:00+9˚e897599 0.0 1027469
07:00+8˚e797694 0.0 1027436
10:00+9˚e787184 0.0 1028549
13:00+9˚e776549 0.0 1027635
16:00+8˚e776338 0.0 1026648
19:00+8˚ene676096 0.0 1027576
22:00+8˚ene676198 0.0 1027577
6 december, sun
sun601:00+8˚ene676196 0.0 1027542
04:00+7˚ne676185 0.0 1026580
07:00+7˚ne686027 0.0 1027582
10:00+7˚ne786163 0.0 1028933
13:00+7˚ne776049 0.0 1028922
16:00+7˚ne776225 0.0 1027922
19:00+6˚ne66620 0.0 1029626
22:00+6˚ne565737 0.0 1030658
7 december, mon
mon701:00+6˚ne455665 0.0 1030603
04:00+6˚ne566234 0.0 1030616
07:00+5˚ene566550 0.0 1030604
10:00+6˚ene556170 0.0 10321056
13:00+6˚ene656073 0.0 10311072
16:00+5˚ne556484 0.0 10311038
19:00+5˚ne556388 0.0 1032937
22:00+5˚ne456359 0.0 1032662